Weather in Boriskovo

Russia / Kaluga Oblast     55°09′05″N   36°56′41″E
temp.,
°C
wind,
m/s
gust,
m/s
humid.,
%
clouds,
%
prec.,
mm/h
press.,
hPa
HPBL,
m
16 may, sun
sun1600:00+12s310978 0.1 1010313
03:00+10ssw289824 0.1 1011214
06:00+11ssw28964 0.0 1012249
09:00+17ssw47734 0.0 1013655
12:00+19ssw47635 0.6 10121435
15:00+20ssw47595 2.0 10131590
18:00+19sw26750 1.0 1013541
21:00+14sse118920 1.1 101411
17 may, mon
mon1700:00+13ese119199 0.0 101410
03:00+12ese22955 0.0 101527
06:00+13e259198 0.0 1015123
09:00+19e4866100 0.0 1014552
12:00+23e575771 0.0 10131007
15:00+25ese58555 0.0 10111427
18:00+24ese58685 0.0 10101015
21:00+19ese41480100 0.0 1010535
18 may, tue
tue1800:00+17ese4158055 0.0 1009484
03:00+15ese4128614 0.0 1009342
06:00+15ese41280100 0.0 1008365
09:00+20se5106096 0.0 1008556
12:00+24sse5104983 0.0 10081011
15:00+25sse51047100 0.0 10081412
18:00+23se5106059 0.0 10081077
21:00+20ese5157058 0.0 1007779
19 may, wed
wed1900:00+18ese3137999 0.0 1007442
03:00+17se4118099 0.0 1006406
06:00+15ese3138385 0.1 1006381
09:00+20sse5116499 0.1 1006711
12:00+24s585491 0.0 10061600
15:00+22sse5146896 0.9 10071829
18:00+20se41575100 1.0 10071991
21:00+15se3993100 1.3 1006205
20 may, thu
thu2000:00+15ese41194100 1.1 1005465
03:00+14sse489870 1.1 1005441
06:00+13sse389599 0.0 1006464
09:00+14sse4790100 0.7 1006719
12:00+15s588578 1.6 10061008
15:00+18ssw586088 2.3 10071640
18:00+16sw59786 0.7 10091017
21:00+12ssw498473 0.8 1011525